TimeMST,TemperatureF,Dew PointF,Humidity,Sea Level PressureIn,VisibilityMPH,Wind Direction,Wind SpeedMPH,Gust SpeedMPH,PrecipitationIn,Events,Conditions,WindDirDegrees,DateUTC
12:15 AM,-5.8,-11.2,77,30.15,10.0,NNW,10.4,-,N/A,,Mostly Cloudy,330,2013-01-14 07:15:00
12:35 AM,-5.8,-13.0,71,30.15,10.0,NNW,10.4,-,N/A,,Overcast,330,2013-01-14 07:35:00
12:55 AM,-5.8,-13.0,71,30.15,10.0,NNW,10.4,-,N/A,,Overcast,340,2013-01-14 07:55:00
1:15 AM,-7.6,-13.0,77,30.16,10.0,NNW,8.1,-,N/A,,Overcast,330,2013-01-14 08:15:00
1:55 AM,-5.8,-13.0,71,30.15,10.0,NW,8.1,-,N/A,,Overcast,320,2013-01-14 08:55:00
2:15 AM,-5.8,-13.0,71,30.15,10.0,NW,8.1,-,N/A,,Overcast,320,2013-01-14 09:15:00
2:35 AM,-7.6,-13.0,77,30.16,10.0,NW,9.2,-,N/A,,Overcast,320,2013-01-14 09:35:00
2:55 AM,-5.8,-11.2,77,30.18,10.0,NW,9.2,-,N/A,,Overcast,320,2013-01-14 09:55:00
3:15 AM,-5.8,-11.2,77,30.18,10.0,NW,8.1,-,N/A,,Overcast,320,2013-01-14 10:15:00
3:35 AM,-5.8,-11.2,77,30.18,10.0,NW,8.1,-,N/A,,Overcast,320,2013-01-14 10:35:00
3:55 AM,-5.8,-11.2,77,30.18,10.0,NW,8.1,-,N/A,,Overcast,310,2013-01-14 10:55:00
4:15 AM,-5.8,-11.2,77,30.18,10.0,NW,8.1,-,N/A,,Overcast,310,2013-01-14 11:15:00
4:35 AM,-5.8,-11.2,77,30.19,10.0,NW,10.4,-,N/A,,Overcast,320,2013-01-14 11:35:00
4:55 AM,-4.0,-9.4,78,30.18,10.0,NW,8.1,-,N/A,,Overcast,320,2013-01-14 11:55:00
5:15 AM,-4.0,-9.4,78,30.19,10.0,NW,9.2,-,N/A,,Overcast,320,2013-01-14 12:15:00
5:35 AM,-5.8,-9.4,84,30.19,10.0,NNW,10.4,-,N/A,,Overcast,330,2013-01-14 12:35:00
5:55 AM,-5.8,-9.4,84,30.19,10.0,North,6.9,-,N/A,,Overcast,350,2013-01-14 12:55:00
6:47 AM,-9.4,-14.8,77,30.20,10.0,NW,6.9,-,N/A,,Scattered Clouds,320,2013-01-14 13:47:00
7:47 AM,-11.2,-16.6,77,30.23,10.0,NW,9.2,-,N/A,,Scattered Clouds,310,2013-01-14 14:47:00
8:47 AM,-9.4,-16.6,71,30.24,10.0,NW,10.4,-,N/A,,Mostly Cloudy,310,2013-01-14 15:47:00
9:50 AM,-5.8,-14.8,65,30.24,10.0,WNW,11.5,-,N/A,,Mostly Cloudy,300,2013-01-14 16:50:00
12:47 PM,6.8,-0.4,72,30.22,10.0,NW,5.8,-,N/A,,Overcast,320,2013-01-14 19:47:00
1:47 PM,8.6,-0.4,67,30.19,10.0,Calm,Calm,-,N/A,,Overcast,0,2013-01-14 20:47:00
4:47 PM,6.8,1.4,79,30.23,10.0,SE,9.2,-,N/A,,Mostly Cloudy,130,2013-01-14 23:47:00
5:47 PM,3.2,-0.4,85,30.22,10.0,SE,8.1,-,N/A,,Scattered Clouds,130,2013-01-15 00:47:00
6:47 PM,3.2,-0.4,85,30.24,10.0,Calm,Calm,-,N/A,,Scattered Clouds,0,2013-01-15 01:47:00
8:50 PM,1.4,-0.4,92,30.23,10.0,Calm,Calm,-,N/A,,Scattered Clouds,0,2013-01-15 03:50:00
9:47 PM,-0.4,-2.2,92,30.25,10.0,NW,5.8,-,N/A,,Scattered Clouds,310,2013-01-15 04:47:00
10:15 PM,1.4,-4.0,78,30.26,10.0,WNW,3.5,-,N/A,,Clear,290,2013-01-15 05:15:00
10:35 PM,-0.4,-4.0,85,30.26,10.0,Calm,Calm,-,N/A,,Clear,0,2013-01-15 05:35:00
10:47 PM,-0.4,-4.0,85,30.26,10.0,NW,5.8,-,N/A,,Scattered Clouds,310,2013-01-15 05:47:00
10:55 PM,1.4,-4.0,78,30.26,10.0,Calm,Calm,-,N/A,,Clear,0,2013-01-15 05:55:00
11:15 PM,-0.4,-4.0,85,30.27,10.0,Calm,Calm,-,N/A,,Clear,0,2013-01-15 06:15:00
11:35 PM,-0.4,-5.8,78,30.27,10.0,NNW,4.6,-,N/A,,Clear,340,2013-01-15 06:35:00
11:55 PM,-2.2,-7.6,78,30.28,10.0,WNW,4.6,-,N/A,,Clear,300,2013-01-15 06:55:00